Hourly Data Report for January 20, 2005

SHERBROOKE A
QUEBEC

45°26'00.000" N
71°41'00.000" W
241.40 m
7028124
71610
YSC

Download Data

Hourly Data (January 2005)
Hourly Data Report for January 20, 2005
TIME
LST
Temp Definition
°C
Dew Point Definition
°C
Rel Hum Definition
%
Precip. Amount Definition
mm

Wind Dir Definition
10's deg

Wind Spd Definition
km/h
Visibility Definition
km
Stn Press Definition
kPa
Hmdx Definition


Wind Chill Definition


Weather Definition


00:00 -10.6 -12.5 86   10 4 4.0 98.00   -13 Snow
01:00 -11.1 -12.9 87   9 4 4.8 97.94   -14 Snow
02:00 -12.0 -13.8 86     0 15.0 97.91      
03:00 -13.2 -14.8 88     0 15.0 97.87      
04:00 -14.6 -16.5 85     0 12.9 97.87      
05:00 -13.3 -15.3 85   14 4 9.7 97.88   -16 Snow
06:00 -12.9 -14.9 85   24 4 2.9 97.88   -16 Snow
07:00 -12.6 -14.6 85   25 6 4.0 97.93   -17 Snow
08:00 -11.9 -14.0 84   30 11 4.8 98.00   -18 Snow
09:00 -12.6 -15.0 82   30 15 4.0 98.05   -20 Snow
10:00 -14.6 -17.5 79   30 19 4.8 98.16   -23 Snow
11:00 -15.0 -18.6 74   30 20 11.3 98.18   -24 Snow
12:00 -15.4 -18.9 75   32 17 3.4 98.15   -24 Snow
13:00 -15.0 -18.4 75   28 26 15.0 98.14   -25  
14:00 -15.6 -19.5 72   28 26 15.0 98.16   -26  
15:00 -16.3 -20.8 68   29 30 15.0 98.22   -28  
16:00 -17.1 -21.8 67   30 20 15.0 98.28   -27  
17:00 -18.1 -22.7 67   28 15 15.0 98.39   -27  
18:00 -18.6 -22.7 70   28 13 15.0 98.45   -27  
19:00 -18.6 -22.6 71   28 19 15.0 98.48   -28  
20:00 -19.5 -22.3 78   28 15 15.0 98.52   -28  
21:00 -20.0 -23.9 71   30 13 15.0 98.55   -28  
22:00 -20.9 -24.7 71   31 11 15.0 98.58   -29  
23:00 -21.9 -25.3 74   30 20 15.0 98.60   -33  

Notes on Data Quality.

Legend

  • E = Estimated
  • M = Missing
  • NA = Not Available*
  • [empty] = Indicates an unobserved value
Date modified: